Location: Ravensburg
(47.7866°N, 9.6124°E)
Time: 06:22:19
(UTC+02:00)

STARS - Pass Details

Date: 21 March 2026
Orbit: 575 x 588 km, 98.2° (Epoch: 15 April)

Event Time Altitude Azimuth Distance (km) Brightness Sun altitude
Rises 03:48:33 0° 359° (N) 2,800 ? -25.5°
Reaches altitude 10° 03:51:19 10° 339° (NNW) 1,896 ? -25.1°
Enters shadow 03:51:53 12° 332° (NNW) 1,758 ? -25.0°
